Location: Baia de Cri?
(46.1667°N, 22.7167°E)
Time: 21:54:23
(UTC+00:00)

ATLAS 2AS CENTAUR R/B - Pass Details

Date: 15 January 2026
Orbit: 1050 x 1161 km, 63.7° (Epoch: 10 February)

Event Time Altitude Azimuth Distance (km) Brightness Sun altitude
Exits shadow 03:39:34 22° 340° (NNW) 2,144 4.0 -25.1°
Maximum altitude 03:43:36 42° 39° (NE) 1,456 3.6 -24.4°
Drops below altitude 10° 03:49:58 10° 109° (ESE) 2,866 6.0 -23.3°
Sets 03:52:45 0° 117° (ESE) 3,823 6.8 -22.8°
